Cairns, Australia

8:02 PM AEST on September 20, 2017 (GMT +1000)
Cairns International

Weather History for YBCS - May, 2014

Change the Weather History Date:

Wednesday, May 28, 2014

  Actual Average Record
Temperature  
Mean Temperature 76 °F -  
Max Temperature 82 °F 78 °F 84 °F (1999)
Min Temperature 69 °F 64 °F 60 °F (2001)
Cooling Degree Days 10    
Growing Degree Days 26 (Base 50)    
Moisture  
Dew Point 66 °F    
Average Humidity 73    
Maximum Humidity 88    
Minimum Humidity 48    
Precipitation  
Precipitation 0.00 in 0.07 in - ()
Sea Level Pressure  
Sea Level Pressure 30.00 in    
Wind  
Wind Speed 11 mph ()    
Max Wind Speed 18 mph    
Max Gust Speed -    
Visibility 7.1 miles    
Events      
Averages and records for this station are not official NWS values.
T = Trace of Precipitation, MM = Missing Value Source: Averaged Metar Reports

Daily Weather History Graph

Daily Weather History Graph

Search for Another Location

Airport or City:

Trip Planner

Search our weather history database for the weather conditions in past years. The results will help you decide how hot, cold, wet, or windy it might be!

Date:

Astronomy

May. 28, 2014 Rise Set
Actual Time 6:37 AM AEST 5:50 PM AEST
Civil Twilight 6:14 AM AEST 6:13 PM AEST
Nautical Twilight 5:47 AM AEST 6:40 PM AEST
Astronomical Twilight 5:21 AM AEST 7:06 PM AEST
Moon 5:51 AM AEST (5/28) 5:31 PM AEST (5/28)
Length of Visible Light 11h 59m
Length of Day
11h 12m
Waning Crescent, 0% of the Moon is Illuminated
May 28
Waning Crescent
May 29
New
Jun 6
First Quarter
Jun 13
Full
Jun 20
Last Quarter

Hourly Weather History & Observations

Time (AEST) Temp. Heat Index Dew Point Humidity Pressure Visibility Wind Dir Wind Speed Gust Speed Precip Events Conditions
12:00 AM 72 °F - 68 °F 82% 30.01 in - SSE 9.2 mph - -   Overcast
12:00 AM 71.6 °F - 68.0 °F 88% 30.01 in 6.2 mi SSE 9.2 mph - N/A   Mostly Cloudy
12:30 AM 71.6 °F - 66.2 °F 83% 29.98 in 6.2 mi SSE 6.9 mph - N/A   Scattered Clouds
1:00 AM 73 °F - 65 °F 69% 29.99 in - SSW 11.5 mph - -  
1:00 AM 73.4 °F - 64.4 °F 73% 29.98 in 6.2 mi SSW 11.5 mph - N/A   Partly Cloudy
1:30 AM 71.6 °F - 66.2 °F 83% 29.98 in 6.2 mi SSE 10.4 mph - N/A   Scattered Clouds
2:00 AM 71.6 °F - 66.2 °F 83% 29.98 in 6.2 mi SSE 10.4 mph - N/A   Scattered Clouds
2:30 AM 73.4 °F - 66.2 °F 78% 29.95 in 6.2 mi South 11.5 mph - N/A   Scattered Clouds
3:00 AM 73 °F - 65 °F 71% 29.97 in - South 12.7 mph - -  
3:00 AM 73.4 °F - 66.2 °F 78% 29.95 in 6.2 mi South 12.7 mph - N/A   Mostly Cloudy
3:30 AM 73.4 °F - 66.2 °F 78% 29.95 in 6.2 mi South 9.2 mph - N/A   Scattered Clouds
4:00 AM 72 °F - 65 °F 74% 29.97 in - SSE 9.2 mph - -  
4:00 AM 73.4 °F - 66.2 °F 78% 29.95 in 6.2 mi SSE 9.2 mph - N/A   Partly Cloudy
4:30 AM 71.6 °F - 66.2 °F 83% 29.95 in 6.2 mi SSE 10.4 mph - N/A   Partly Cloudy
5:00 AM 71.6 °F - 66.2 °F 83% 29.98 in 6.2 mi SSE 9.2 mph - N/A   Scattered Clouds
5:30 AM 73.4 °F - 64.4 °F 73% 29.98 in 6.2 mi South 10.4 mph - N/A   Scattered Clouds
6:00 AM 70 °F - 66 °F 85% 30.01 in 16 mi SE 12.7 mph - -   Partly Cloudy
6:00 AM 69.8 °F - 66.2 °F 88% 30.01 in 6.2 mi SE 12.7 mph - N/A   Mostly Cloudy
6:30 AM 71.6 °F - 68.0 °F 88% 30.01 in 6.2 mi South 13.8 mph - N/A   Mostly Cloudy
7:00 AM 71 °F - 67 °F 85% 30.04 in - South 12.7 mph - -  
7:00 AM 71.6 °F - 68.0 °F 88% 30.04 in 6.2 mi South 12.7 mph - N/A   Mostly Cloudy
7:30 AM 71.6 °F - 66.2 °F 83% 30.04 in 6.2 mi South 15.0 mph - N/A   Mostly Cloudy
8:00 AM 71.6 °F - 66.2 °F 83% 30.04 in 6.2 mi South 12.7 mph - N/A   Mostly Cloudy
8:30 AM 73.4 °F - 66.2 °F 78% 30.04 in 6.2 mi South 12.7 mph - N/A   Mostly Cloudy
9:00 AM 74 °F - 67 °F 71% 30.06 in 19 mi South 12.7 mph - -   Partly Cloudy
9:00 AM 73.4 °F - 66.2 °F 78% 30.06 in 6.2 mi South 12.7 mph - N/A   Mostly Cloudy
9:30 AM 75.2 °F - 66.2 °F 73% 30.06 in 6.2 mi SSE 15.0 mph - N/A   Mostly Cloudy
10:00 AM 74 °F - 66 °F 70% 30.09 in - SSW 11.5 mph - -  
10:00 AM 73.4 °F - 66.2 °F 78% 30.06 in 6.2 mi SSW 11.5 mph - N/A   Mostly Cloudy
10:30 AM 77.0 °F - 66.2 °F 69% 30.06 in 6.2 mi SSE 10.4 mph - N/A   Mostly Cloudy
11:00 AM 77.0 °F - 66.2 °F 69% 30.04 in 6.2 mi SSE 11.5 mph - N/A   Mostly Cloudy
11:30 AM 78.8 °F - 68.0 °F 69% 30.04 in 6.2 mi SSE 15.0 mph - N/A   Partly Cloudy
12:00 PM 80 °F - 67 °F 57% 30.03 in 19 mi South 12.7 mph - -   Partly Cloudy
12:00 PM 80.6 °F 83.2 °F 68.0 °F 65% 30.01 in 6.2 mi South 12.7 mph - N/A   Partly Cloudy
12:30 PM 80.6 °F 83.2 °F 68.0 °F 65% 30.01 in 6.2 mi SE 15.0 mph - N/A   Partly Cloudy
1:00 PM 82 °F - 65 °F 48% 30.01 in - SE 16.1 mph - -  
1:00 PM 82.4 °F 84.6 °F 66.2 °F 58% 29.98 in 6.2 mi SE 16.1 mph - N/A   Partly Cloudy
1:30 PM 80.6 °F 81.8 °F 62.6 °F 54% 29.98 in 6.2 mi SE 16.1 mph - N/A   Partly Cloudy
2:00 PM 82.4 °F 84.6 °F 66.2 °F 58% 29.95 in 6.2 mi SE 18.4 mph - N/A   Partly Cloudy
2:30 PM 80.6 °F 82.7 °F 66.2 °F 61% 29.95 in 6.2 mi SE 18.4 mph - N/A   Scattered Clouds
3:00 PM 81 °F - 67 °F 54% 29.96 in 19 mi SE 16.1 mph - -   Partly Cloudy
3:00 PM 80.6 °F 83.2 °F 68.0 °F 65% 29.95 in 6.2 mi SE 16.1 mph - N/A   Scattered Clouds
3:30 PM 80.6 °F 82.7 °F 66.2 °F 61% 29.95 in 6.2 mi SE 17.3 mph - N/A   Partly Cloudy
4:00 PM 79 °F - 66 °F 56% 29.96 in - SE 16.1 mph - -  
4:00 PM 78.8 °F - 66.2 °F 65% 29.95 in 6.2 mi SE 16.1 mph - N/A   Partly Cloudy
4:30 PM 78.8 °F - 66.2 °F 65% 29.95 in 6.2 mi SE 18.4 mph - N/A   Scattered Clouds
5:00 PM 77.0 °F - 68.0 °F 74% 29.95 in 6.2 mi SE 13.8 mph - N/A   Scattered Clouds
5:30 PM 77.0 °F - 66.2 °F 69% 29.98 in 6.2 mi SE 13.8 mph - N/A   Scattered Clouds
6:00 PM 76 °F - 65 °F 62% 29.99 in - South 8.1 mph - -  
6:00 PM 77.0 °F - 66.2 °F 69% 29.98 in 6.2 mi South 8.1 mph - N/A   Scattered Clouds
6:30 PM 75.2 °F - 66.2 °F 73% 29.98 in 6.2 mi SSE 8.1 mph - N/A   Scattered Clouds
7:00 PM 75 °F - 67 °F 69% 30.02 in - SSE 8.1 mph - -  
7:00 PM 75.2 °F - 66.2 °F 73% 30.01 in 6.2 mi SSE 8.1 mph - N/A   Scattered Clouds
7:30 PM 75.2 °F - 66.2 °F 73% 30.01 in 6.2 mi SSE 8.1 mph - N/A   Scattered Clouds
8:00 PM 73.4 °F - 68.0 °F 83% 30.01 in 6.2 mi South 9.2 mph - N/A   Scattered Clouds
8:30 PM 73.4 °F - 68.0 °F 83% 30.04 in 6.2 mi South 10.4 mph - N/A   Mostly Cloudy
9:00 PM 74 °F - 67 °F 73% 30.04 in - South 9.2 mph - -   Overcast
9:00 PM 73.4 °F - 68.0 °F 83% 30.04 in 6.2 mi South 9.2 mph - N/A   Scattered Clouds
9:30 PM 73.4 °F - 68.0 °F 83% 30.04 in 6.2 mi South 10.4 mph - N/A   Scattered Clouds
10:00 PM 74 °F - 67 °F 74% 30.04 in - South 10.4 mph - -  
10:00 PM 73.4 °F - 68.0 °F 83% 30.04 in 6.2 mi South 10.4 mph - N/A   Scattered Clouds
11:00 PM 73.4 °F - 66.2 °F 78% 30.04 in 6.2 mi South 11.5 mph - N/A   Scattered Clouds
11:30 PM 73.4 °F - 66.2 °F 78% 30.01 in 6.2 mi South 10.4 mph - N/A   Mostly Cloudy